TimeCST,TemperatureF,Dew PointF,Humidity,Sea Level PressureIn,VisibilityMPH,Wind Direction,Wind SpeedMPH,Gust SpeedMPH,PrecipitationIn,Events,Conditions,WindDirDegrees,DateUTC
12:15 AM,23.0,20.3,89,30.41,7.0,East,4.6,-,N/A,,Clear,90,2013-03-08 06:15:00
12:35 AM,21.9,19.4,90,30.41,7.0,East,5.8,-,N/A,,Clear,90,2013-03-08 06:35:00
12:55 AM,23.0,20.7,91,30.42,7.0,East,4.6,-,N/A,,Clear,100,2013-03-08 06:55:00
1:15 AM,21.9,19.6,91,30.43,7.0,East,4.6,-,N/A,,Clear,80,2013-03-08 07:15:00
1:35 AM,22.1,20.1,92,30.43,5.0,East,3.5,-,N/A,,Clear,80,2013-03-08 07:35:00
1:55 AM,20.7,18.7,92,30.42,5.0,East,6.9,-,N/A,,Clear,90,2013-03-08 07:55:00
2:15 AM,20.8,19.0,93,30.41,5.0,East,6.9,-,N/A,,Clear,90,2013-03-08 08:15:00
2:35 AM,20.7,18.7,92,30.41,7.0,East,6.9,-,N/A,,Clear,90,2013-03-08 08:35:00
2:55 AM,22.1,20.1,92,30.41,7.0,East,4.6,-,N/A,,Clear,80,2013-03-08 08:55:00
3:15 AM,21.2,19.2,92,30.42,7.0,East,3.5,-,N/A,,Clear,90,2013-03-08 09:15:00
3:35 AM,20.7,18.5,91,30.43,7.0,Calm,Calm,-,N/A,,Clear,0,2013-03-08 09:35:00
3:55 AM,20.3,18.3,92,30.43,5.0,East,3.5,-,N/A,,Clear,80,2013-03-08 09:55:00
4:15 AM,19.8,18.0,93,30.43,5.0,East,4.6,-,N/A,,Clear,90,2013-03-08 10:15:00
4:35 AM,19.4,17.6,93,30.43,5.0,East,4.6,-,N/A,,Clear,90,2013-03-08 10:35:00
4:55 AM,19.6,17.6,92,30.43,5.0,East,5.8,-,N/A,,Clear,80,2013-03-08 10:55:00
5:15 AM,19.2,17.4,93,30.43,5.0,East,4.6,-,N/A,,Clear,90,2013-03-08 11:15:00
5:35 AM,19.4,17.8,93,30.43,4.0,ESE,4.6,-,N/A,,Clear,110,2013-03-08 11:35:00
5:55 AM,19.4,17.6,93,30.44,4.0,ESE,4.6,-,N/A,,Clear,110,2013-03-08 11:55:00
6:15 AM,20.1,18.5,93,30.44,2.5,East,4.6,-,N/A,,Clear,100,2013-03-08 12:15:00
6:35 AM,19.4,17.6,93,30.44,2.5,East,5.8,-,N/A,,Clear,100,2013-03-08 12:35:00
6:55 AM,19.9,18.5,94,30.44,3.0,East,4.6,-,N/A,,Clear,100,2013-03-08 12:55:00
7:15 AM,20.8,19.2,93,30.44,4.0,East,4.6,-,N/A,,Clear,100,2013-03-08 13:15:00
7:35 AM,21.9,20.1,93,30.45,4.0,ESE,5.8,-,N/A,,Clear,110,2013-03-08 13:35:00
7:55 AM,25.0,22.5,90,30.45,5.0,ESE,5.8,-,N/A,,Clear,110,2013-03-08 13:55:00
8:15 AM,27.3,22.8,83,30.46,7.0,ESE,6.9,-,N/A,,Clear,120,2013-03-08 14:15:00
8:35 AM,29.1,22.8,77,30.45,10.0,ESE,6.9,-,N/A,,Clear,120,2013-03-08 14:35:00
8:55 AM,30.9,23.4,74,30.45,10.0,ESE,6.9,-,N/A,,Clear,110,2013-03-08 14:55:00
9:15 AM,32.4,24.1,72,30.45,10.0,ESE,9.2,-,N/A,,Clear,120,2013-03-08 15:15:00
9:35 AM,34.2,25.0,69,30.44,10.0,ESE,9.2,-,N/A,,Clear,120,2013-03-08 15:35:00
9:55 AM,34.7,24.8,67,30.45,10.0,ESE,10.4,-,N/A,,Clear,120,2013-03-08 15:55:00
10:15 AM,36.0,25.3,65,30.44,10.0,ESE,11.5,-,N/A,,Clear,110,2013-03-08 16:15:00
10:35 AM,35.6,24.8,65,30.45,10.0,ESE,16.1,-,N/A,,Clear,110,2013-03-08 16:35:00
10:55 AM,36.1,25.7,66,30.45,10.0,ESE,15.0,18.4,N/A,,Clear,120,2013-03-08 16:55:00
11:15 AM,36.5,26.2,66,30.43,10.0,ESE,13.8,-,N/A,,Clear,110,2013-03-08 17:15:00
11:35 AM,36.9,26.8,67,30.43,10.0,ESE,13.8,-,N/A,,Clear,110,2013-03-08 17:35:00
11:55 AM,36.5,26.6,67,30.43,10.0,East,16.1,-,N/A,,Clear,100,2013-03-08 17:55:00
12:15 PM,36.9,27.3,68,30.42,10.0,ESE,15.0,23.0,N/A,,Clear,110,2013-03-08 18:15:00
12:35 PM,37.0,27.9,69,30.41,10.0,ESE,15.0,-,N/A,,Clear,110,2013-03-08 18:35:00
12:55 PM,37.2,28.0,69,30.40,10.0,East,13.8,20.7,N/A,,Clear,100,2013-03-08 18:55:00
1:15 PM,37.8,28.9,71,30.39,10.0,ESE,15.0,19.6,N/A,,Clear,120,2013-03-08 19:15:00
1:35 PM,37.9,28.8,70,30.38,10.0,ESE,15.0,-,N/A,,Clear,110,2013-03-08 19:35:00
1:55 PM,38.3,28.9,69,30.38,10.0,ESE,12.7,18.4,N/A,,Clear,110,2013-03-08 19:55:00
2:15 PM,38.3,29.1,70,30.37,10.0,ESE,13.8,19.6,N/A,,Clear,110,2013-03-08 20:15:00
2:35 PM,39.4,30.2,70,30.36,10.0,ESE,11.5,16.1,N/A,,Clear,110,2013-03-08 20:35:00
2:55 PM,39.6,30.2,69,30.36,10.0,ESE,9.2,-,N/A,,Clear,110,2013-03-08 20:55:00
3:15 PM,39.6,30.4,70,30.36,10.0,ESE,8.1,-,N/A,,Clear,120,2013-03-08 21:15:00
3:35 PM,38.5,29.5,70,30.35,10.0,ESE,10.4,-,N/A,,Clear,120,2013-03-08 21:35:00
3:55 PM,38.7,29.8,71,30.36,10.0,ESE,9.2,-,N/A,,Clear,120,2013-03-08 21:55:00
4:15 PM,37.9,29.5,72,30.35,10.0,ESE,10.4,-,N/A,,Clear,120,2013-03-08 22:15:00
4:35 PM,37.6,29.5,73,30.35,10.0,ESE,11.5,-,N/A,,Clear,120,2013-03-08 22:35:00
4:55 PM,36.9,29.3,74,30.35,10.0,ESE,10.4,-,N/A,,Clear,110,2013-03-08 22:55:00
5:15 PM,36.3,29.1,75,30.35,10.0,ESE,11.5,-,N/A,,Clear,110,2013-03-08 23:15:00
5:35 PM,35.8,28.8,76,30.35,10.0,ESE,10.4,-,N/A,,Clear,120,2013-03-08 23:35:00
5:55 PM,35.6,28.8,76,30.36,10.0,ESE,10.4,-,N/A,,Clear,120,2013-03-08 23:55:00
6:15 PM,35.1,28.8,78,30.35,10.0,ESE,9.2,-,N/A,,Clear,110,2013-03-09 00:15:00
6:35 PM,34.7,29.1,80,30.36,10.0,ESE,10.4,-,N/A,,Clear,120,2013-03-09 00:35:00
6:55 PM,34.3,29.1,81,30.35,10.0,ESE,8.1,-,N/A,,Clear,110,2013-03-09 00:55:00
7:15 PM,34.3,29.1,81,30.35,10.0,East,8.1,-,N/A,,Clear,100,2013-03-09 01:15:00
7:35 PM,33.8,28.4,81,30.35,10.0,ESE,9.2,-,N/A,,Clear,110,2013-03-09 01:35:00
7:55 PM,34.3,28.9,81,30.33,10.0,East,9.2,-,N/A,,Clear,100,2013-03-09 01:55:00
8:15 PM,34.3,28.9,81,30.32,10.0,East,10.4,-,N/A,,Clear,100,2013-03-09 02:15:00
8:35 PM,34.3,28.4,79,30.33,10.0,ESE,9.2,-,N/A,,Clear,110,2013-03-09 02:35:00
8:55 PM,33.8,28.4,81,30.32,10.0,East,10.4,-,N/A,,Clear,100,2013-03-09 02:55:00
9:15 PM,34.0,28.2,79,30.31,10.0,East,8.1,-,N/A,,Clear,100,2013-03-09 03:15:00
9:35 PM,34.0,28.6,81,30.30,10.0,ESE,11.5,-,N/A,,Clear,110,2013-03-09 03:35:00
9:55 PM,34.3,28.4,79,30.30,10.0,ESE,11.5,-,N/A,,Clear,120,2013-03-09 03:55:00
10:15 PM,34.3,28.2,78,30.29,10.0,ESE,13.8,-,N/A,,Clear,110,2013-03-09 04:15:00
10:35 PM,34.3,28.2,78,30.29,10.0,ESE,15.0,-,N/A,,Clear,120,2013-03-09 04:35:00
10:55 PM,34.3,28.4,79,30.28,10.0,ESE,13.8,-,N/A,,Clear,110,2013-03-09 04:55:00
11:15 PM,34.3,28.2,78,30.28,10.0,ESE,13.8,-,N/A,,Clear,120,2013-03-09 05:15:00
11:35 PM,33.8,28.0,79,30.27,10.0,ESE,12.7,-,N/A,,Clear,120,2013-03-09 05:35:00
11:55 PM,33.8,28.0,79,30.27,10.0,ESE,12.7,-,N/A,,Clear,120,2013-03-09 05:55:00